Location: Jackson Park
(37.2862°N, 79.9123°W)
Time: 23:33:14
(UTC+00:00)

Explorer 11/Cluster Stage 4 - Pass Details

Date: 14 May 2026
Orbit: 463 x 1173 km, 28.8° (Epoch: 5 June)

Event Time Altitude Azimuth Distance (km) Brightness Sun altitude
Rises 03:15:43 0° 226° (SW) 3,878 10.0 -27.3°
Enters shadow 03:16:54 - 223° (SW) 3,507 9.8 -27.5°
Reaches altitude 10° 03:19:13 10° 214° (SSW) 2,823 - -27.7°
Maximum altitude 03:24:26 23° 164° (SSE) 1,860 - -28.2°
Drops below altitude 10° 03:29:01 10° 114° (ESE) 2,445 - -28.7°
Sets 03:31:49 0° 99° (E) 3,248 - -28.9°
